Location: Maccacari
(45.1333°N, 11.1333°E)
Time: 00:36:13
(UTC+00:00)

S-56A Canister/Altair - Pass Details

Date: 25 June 2021
Orbit: 631 x 2501 km, 38.9° (Epoch: 30 July)

Event Time Altitude Azimuth Distance (km) Brightness Sun altitude
Exits shadow 01:51:36 17° 193° (SSW) 1,726 8.8 -13.1°
Maximum altitude 01:53:36 22° 160° (SSE) 1,439 8.6 -12.9°
Drops below altitude 10° 01:57:03 10° 109° (ESE) 2,008 9.9 -12.5°
Sets 01:59:42 0° 93° (E) 2,927 11.0 -12.2°
